Terug naar catalogus

NUSAT-54

BRANCA MARQUES

ActiefWetenschapSSO
NORAD 68442·PAYLOAD·🇦🇷 Argentina

Gelanceerd Mar 30, 2026 vanaf Vandenberg Space Force Base

Loading…

Volgende Passages (komende 24 uur)

TLE

VersSource: Space-Track

Epoch: Sep 14, 2026, 14:51 UTC

1 68442U 26067AC  26257.61887810  .00004446  00000-0  21875-3 0  9990
2 68442  97.4643 214.7337 0006103 109.0441 251.1455 15.18502460 25502

Volg NUSAT-54 in realtime met AllMySat

Download on the App Store